Notices

What's New in latest Release from April 7th, 2021:

- Updated Glossary, including Speed of Maximum Gust, and Total Hourly Precipitation

- Updated national and regional climate services offices contacts and prices information

- Addition of station inventory lists for 1981-2010, 1971-2000, and 1961-1990 Normals.

If you haven't already, please take our survey and provide feedback about our website: https://eccc.sondage-survey.ca/f/LanguageSelection.aspx?s=442ca660-fcf1-47c0-95a9-59707d6fd709

Hourly Data Report for August 28, 2016

TORONTO CITY
ONTARIO

43°40'00.000" N
79°24'00.000" W
112.50 m
6158355
71508
XTO

Download Data

Hourly Data (August 2016)
Hourly Data Report for August 28, 2016
TIME
LST
Temp Definition
°C
Dew Point Definition
°C
Rel Hum Definition
%
Precip. Amount Definition
mm

Wind Dir Definition
10's deg

Wind Spd Definition
km/h
Visibility Definition
km
Stn Press Definition
kPa
Hmdx Definition


Wind Chill Definition


Weather Definition


00:00 23.3 15.0 59 0.0 LegendMM LegendMM   100.65 27   LegendNANA
01:00 23.4 14.9 59 0.0 LegendMM LegendMM   100.64 27   LegendNANA
02:00 23.1 16.2 65 0.0 LegendMM LegendMM   100.58 28   LegendNANA
03:00 22.7 18.6 78 0.0 LegendMM LegendMM   100.60 29   LegendNANA
04:00 22.5 19.1 81 0.0 LegendMM LegendMM   100.59 29   LegendNANA
05:00 22.0 19.2 84 0.0 LegendMM LegendMM   100.63 29   LegendNANA
06:00 21.6 19.5 88 0.0 LegendMM LegendMM   100.69 29   LegendNANA
07:00 22.4 19.4 83 0.0 LegendMM LegendMM   100.69 29   LegendNANA
08:00 23.8 19.4 76 0.0 LegendMM LegendMM   100.69 31   LegendNANA
09:00 25.4 17.7 62 0.0 LegendMM LegendMM   100.71 31   LegendNANA
10:00 26.5 18.3 61 0.0 LegendMM LegendMM   100.72 33   LegendNANA
11:00 26.3 20.0 68 0.0 LegendMM LegendMM   100.71 34   LegendNANA
12:00 27.7 19.6 62 0.0 LegendMM LegendMM   100.69 35   LegendNANA
13:00 30.2 19.1 51 0.0 LegendMM LegendMM   100.68 37   LegendNANA
14:00 29.3 18.9 54 0.0 LegendMM LegendMM   100.64 36   LegendNANA
15:00 30.1 18.1 49 0.0 LegendMM LegendMM   100.60 36   LegendNANA
16:00 30.2 17.6 47 0.0 LegendMM LegendMM   100.58 36   LegendNANA
17:00 29.8 17.2 47 0.0 LegendMM LegendMM   100.57 35   LegendNANA
18:00 29.2 17.4 49 0.0 LegendMM LegendMM   100.55 35   LegendNANA
19:00 26.4 18.5 62 0.0 LegendMM LegendMM   100.63 33   LegendNANA
20:00 25.0 17.7 64 0.0 LegendMM LegendMM   100.71 31   LegendNANA
21:00 24.0 16.9 65 0.0 LegendMM LegendMM   100.78 29   LegendNANA
22:00 23.1 15.9 64 0.0 LegendMM LegendMM   100.82 28   LegendNANA
23:00 21.7 15.6 68 0.0 LegendMM LegendMM   100.85 26   LegendNANA

Notes on Data Quality.

Legend

  • E = Estimated
  • M = Missing
  • NA = Not Available*
  • [empty] = Indicates an unobserved value
Date modified: